エレーニン彗星

C/2017 A3 ( Elenin )

English version
Home page
Updated on March 13, 2017

---------------------------------------------------------------------

・ プロフィール

発見日 2017年1月5日
発見光度 17.6等
発見者 L. Elenin (ISON-SSO Observatory at Siding Spring)

・ 写真集

・ 軌道要素

Epoch 2017 Feb. 16.0 TT = JDT 2457800.5
T 2017 Jan. 30.63103 TT                                 MPCW
q   3.8543691            (2000.0)            P               Q
z  +0.0231771      Peri.  304.11297     -0.19846037     -0.03171594
 +/-0.0000000      Node    97.90671     +0.81990833     +0.54223404
e   0.9106669      Incl.   98.50705     -0.53699517     +0.83962870
From 147 observations 2017 Jan. 5-Feb. 28, mean residual 0".5.

・ 光度変化

        m1 = 9.0 + 5 logΔ + 10.0 log r

---------------------------------------------------------------------

軌道要素はM.P.E.C. 2017-E18に掲載されたものです。
光度グラフはComet for Windowsで作成したものです。

---------------------------------------------------------------------

Copyright(C) Seiichi Yoshida (comet@aerith.net). All rights reserved.